1998-067XJ

Last updated on Mon Oct 20 2025 00:02:06 GMT+0000 (Coordinated Universal Time)

1 65730U 98067XJ 25291.73213246 .00258749 00000+0 29010-2 0 9996 2 65730 51.6306 53.4670 0007282 342.8001 17.2745 15.61248235 4564
UTC large
Height (km)
Speed (km/s)
/
Latitude / Longitude
Inclination (degrees)
Orbital Period (minutes)
Azimuth
Elevation
Range (km)
Doppler Factor

Next 0 passes for location: London (51.5072 / 0.1276)

Sorry there are no passes over London.